User: anonymous   Login
Location: Unspecified
(0.0000°N, 0.0000°E)
Time: 08:09:17
(UTC+00:00)
Language:

APRIZESAT 7 - Orbit

View from above orbital plane
View from above orbital plane
View from above satellite
View from above satellite

Ground track
Ground track

The orbit data is extracted from the following two-line orbital elements,

1 39416U 13066A   19345.77341370 +.00000076 +00000-0 +15108-4 0  9995
2 39416 097.5339 000.1417 0042099 144.1490 216.2564 14.83924896327788
Epoch (UTC): 11 December 2019 18:33:42
Eccentricity: 0.0042099
inclination: 97.5339°
perigee height: 587 km
apogee height: 646 km
right ascension of ascending node: 0.1417°
argument of perigee: 144.1490°
revolutions per day: 14.83924896
mean anomaly at epoch: 216.2564°
orbit number at epoch: 32778

The dashed part of the orbit path shows where the satellite is in the earth's shadow,  

DLR